Newberry, MI

1:56 PM EDT on June 28, 2017 (GMT -0400)
Luce County

Weather History for KERY - August, 2014

Change the Weather History Date:

Wednesday, August 13, 2014

  Actual Average Record
Temperature  
Mean Temperature 54 °F -  
Max Temperature 62 °F 76 °F 89 °F (1978)
Min Temperature 46 °F 53 °F 35 °F (1992)
Degree Days  
Heating Degree Days 11    
Growing Degree Days 4 (Base 50)    
Moisture  
Dew Point 48 °F    
Average Humidity 79    
Maximum Humidity 97    
Minimum Humidity 61    
Precipitation  
Precipitation 0.00 in - - ()
Sea Level Pressure  
Sea Level Pressure 29.94 in    
Wind  
Wind Speed 11 mph (NW)    
Max Wind Speed 17 mph    
Max Gust Speed 30 mph    
Visibility 10 miles    
Events      
Averages and records for this station are not official NWS values.
T = Trace of Precipitation, MM = Missing Value Source: NWS Daily Summary

Daily Weather History Graph

Daily Weather History Graph

Search for Another Location

Airport or City:

Trip Planner

Search our weather history database for the weather conditions in past years. The results will help you decide how hot, cold, wet, or windy it might be!

Date:

Astronomy

Aug. 13, 2014 Rise Set
Actual Time 6:38 AM EDT 8:54 PM EDT
Civil Twilight 6:04 AM EDT 9:27 PM EDT
Nautical Twilight 5:23 AM EDT 10:08 PM EDT
Astronomical Twilight 4:37 AM EDT 10:54 PM EDT
Moon 10:22 PM EDT (8/13) 10:20 AM EDT (8/13)
Length of Visible Light 15h 22m
Length of Day
14h 16m
Waning Gibbous, 88% of the Moon is Illuminated
Aug 13
Waning Gibbous
Aug 17
Last Quarter
Aug 25
New
Sep 2
First Quarter
Sep 8
Full

Hourly Weather History & Observations

Time (EDT) Temp. Windchill Dew Point Humidity Pressure Visibility Wind Dir Wind Speed Gust Speed Precip Events Conditions
12:14 AM 50.0 °F - 47.5 °F 91% 29.84 in 10.0 mi WNW 11.5 mph 17.3 mph N/A   Overcast
12:54 AM 49.1 °F - 46.9 °F 92% 29.84 in 10.0 mi WNW 10.4 mph 16.1 mph N/A   Clear
1:14 AM 48.7 °F - 46.9 °F 93% 29.86 in 10.0 mi West 9.2 mph - N/A   Clear
1:35 AM 47.7 °F - 46.4 °F 95% 29.86 in 10.0 mi West 6.9 mph - N/A   Clear
1:54 AM 47.7 °F - 46.4 °F 95% 29.85 in 10.0 mi West 8.1 mph - N/A   Clear
2:14 AM 47.5 °F - 46.2 °F 95% 29.85 in 10.0 mi West 6.9 mph - N/A   Clear
2:35 AM 47.3 °F - 46.2 °F 96% 29.85 in 10.0 mi West 8.1 mph - N/A   Clear
2:54 AM 47.3 °F - 46.4 °F 97% 29.85 in 10.0 mi West 9.2 mph - N/A   Clear
3:15 AM 46.8 °F - 45.9 °F 97% 29.85 in 10.0 mi West 9.2 mph - N/A   Scattered Clouds
3:34 AM 46.8 °F - 45.9 °F 97% 29.86 in 10.0 mi West 8.1 mph - N/A   Scattered Clouds
3:54 AM 46.4 °F 41.9 °F 45.7 °F 97% 29.86 in 10.0 mi West 9.2 mph - N/A   Mostly Cloudy
4:15 AM 47.8 °F - 46.6 °F 95% 29.86 in 10.0 mi West 9.2 mph - N/A   Mostly Cloudy
4:34 AM 48.2 °F - 46.6 °F 94% 29.86 in 10.0 mi West 10.4 mph - N/A   Scattered Clouds
4:54 AM 48.2 °F - 46.6 °F 94% 29.86 in 10.0 mi West 9.2 mph - N/A   Clear
5:15 AM 48.2 °F - 46.6 °F 94% 29.86 in 10.0 mi West 10.4 mph - N/A   Clear
5:34 AM 48.2 °F - 46.8 °F 95% 29.86 in 10.0 mi West 10.4 mph - N/A   Clear
5:54 AM 49.1 °F - 47.3 °F 93% 29.86 in 10.0 mi WNW 10.4 mph 16.1 mph N/A   Clear
6:15 AM 49.1 °F - 47.3 °F 93% 29.88 in 10.0 mi WNW 10.4 mph - N/A   Clear
6:34 AM 48.4 °F - 46.8 °F 94% 29.89 in 10.0 mi West 11.5 mph - N/A   Clear
6:54 AM 46.4 °F 42.9 °F 45.3 °F 96% 29.89 in 10.0 mi West 6.9 mph - N/A   Clear
7:15 AM 46.8 °F - 45.9 °F 97% 29.90 in 10.0 mi West 8.1 mph - N/A   Clear
7:34 AM 49.5 °F - 47.3 °F 92% 29.91 in 10.0 mi WNW 10.4 mph - N/A   Clear
9:34 AM 57.0 °F - 49.6 °F 76% 29.94 in 10.0 mi NNW 9.2 mph - N/A   Clear
10:15 AM 59.4 °F - 50.7 °F 73% 29.95 in 10.0 mi NNW 11.5 mph - N/A   Scattered Clouds
10:34 AM 59.5 °F - 50.9 °F 73% 29.95 in 10.0 mi NW 8.1 mph 17.3 mph N/A   Mostly Cloudy
11:15 AM 60.8 °F - 50.7 °F 69% 29.96 in 10.0 mi NNW 11.5 mph 19.6 mph N/A   Overcast
11:34 AM 61.7 °F - 51.4 °F 69% 29.96 in 10.0 mi NW 11.5 mph 20.7 mph N/A   Overcast
11:54 AM 61.2 °F - 51.1 °F 69% 29.96 in 10.0 mi NW 12.7 mph 18.4 mph N/A   Overcast
12:14 PM 61.9 °F - 51.6 °F 69% 29.97 in 10.0 mi NW 10.4 mph 17.3 mph N/A   Scattered Clouds
12:34 PM 61.9 °F - 51.8 °F 69% 29.97 in 10.0 mi NNW 15.0 mph 21.9 mph N/A   Clear
12:55 PM 62.4 °F - 52.5 °F 70% 29.97 in 10.0 mi NNW 13.8 mph 19.6 mph N/A   Scattered Clouds
1:14 PM 61.9 °F - 52.5 °F 71% 29.98 in 10.0 mi NNW 12.7 mph 20.7 mph N/A   Scattered Clouds
1:35 PM 62.1 °F - 52.9 °F 72% 29.98 in 10.0 mi NNW 13.8 mph 20.7 mph N/A   Mostly Cloudy
1:54 PM 62.8 °F - 53.1 °F 71% 29.98 in 10.0 mi NNW 15.0 mph 19.6 mph N/A   Overcast
2:14 PM 62.2 °F - 52.9 °F 71% 29.98 in 10.0 mi NNW 13.8 mph 25.3 mph N/A   Mostly Cloudy
2:35 PM 62.2 °F - 52.7 °F 71% 29.98 in 10.0 mi NW 13.8 mph 21.9 mph N/A   Mostly Cloudy
2:54 PM 60.3 °F - 51.6 °F 73% 29.99 in 10.0 mi NNW 15.0 mph 20.7 mph N/A   Overcast
3:14 PM 61.9 °F - 51.8 °F 69% 29.99 in 10.0 mi NW 11.5 mph 21.9 mph N/A   Mostly Cloudy
3:35 PM 61.5 °F - 49.6 °F 65% 29.99 in 10.0 mi NW 16.1 mph 26.5 mph N/A   Mostly Cloudy
3:54 PM 60.8 °F - 48.0 °F 63% 29.99 in 10.0 mi NW 16.1 mph 26.5 mph N/A   Mostly Cloudy
4:14 PM 59.4 °F - 46.4 °F 62% 30.00 in 10.0 mi NNW 15.0 mph 27.6 mph N/A   Scattered Clouds
4:35 PM 60.4 °F - 46.9 °F 61% 30.00 in 10.0 mi NW 16.1 mph 27.6 mph N/A   Scattered Clouds
4:54 PM 60.4 °F - 46.8 °F 61% 30.00 in 10.0 mi NW 15.0 mph 26.5 mph N/A   Clear
5:15 PM 59.2 °F - 46.4 °F 63% 30.00 in 10.0 mi NW 12.7 mph 26.5 mph N/A   Scattered Clouds
5:34 PM 60.4 °F - 47.7 °F 63% 30.01 in 10.0 mi NNW 12.7 mph 21.9 mph N/A   Mostly Cloudy
5:54 PM 58.6 °F - 46.4 °F 64% 30.01 in 10.0 mi NW 16.1 mph 24.2 mph N/A   Mostly Cloudy
6:15 PM 58.5 °F - 45.3 °F 62% 30.01 in 10.0 mi NW 17.3 mph 29.9 mph N/A   Scattered Clouds
6:34 PM 58.1 °F - 44.6 °F 61% 30.02 in 10.0 mi NW 9.2 mph 26.5 mph N/A   Clear
6:54 PM 57.2 °F - 44.8 °F 63% 30.02 in 10.0 mi NW 12.7 mph 28.8 mph N/A   Clear
7:15 PM 56.5 °F - 45.0 °F 65% 30.03 in 10.0 mi NNW 11.5 mph 20.7 mph N/A   Scattered Clouds
7:35 PM 54.9 °F - 44.6 °F 68% 30.04 in 10.0 mi NNW 10.4 mph 16.1 mph N/A   Scattered Clouds
7:54 PM 53.6 °F - 44.6 °F 72% 30.04 in 10.0 mi NNW 9.2 mph - N/A   Scattered Clouds
8:54 PM 51.4 °F - 44.6 °F 77% 30.05 in 10.0 mi NNW 8.1 mph - N/A   Scattered Clouds
9:34 PM 50.4 °F - 44.2 °F 80% 30.06 in 10.0 mi WNW 4.6 mph - N/A   Overcast
9:55 PM 49.6 °F - 43.9 °F 81% 30.06 in 10.0 mi West 9.2 mph - N/A   Mostly Cloudy